DLH8VR EKCH-EDDF

Flight info

Callsign DLH8VR
Flight time 1h 4m
Altitude 36000
Route NEXEN T503 GIMRU DCT MICOS DCT RIMET/N0449F310 T157 KOKEB/N0404F230 T157 KERAX KERAX5A
Aircraft A320/M-SDE3FGHIRWY/LB1

Departure

Time 2026-05-04 13:58
Airport Copenhagen Kastrup Airport (EKCH)

Arrival

Time 2026-05-04 15:02
Airport Frankfurt Main Airport (EDDF)
Time Latitude Longitude Altitude Speed Heading
2026-05-04 13:31 55.62745 12.64041 24 ft 0 kts 33°
2026-05-04 13:49 55.62727 12.64020 27 ft 4 kts 33°
2026-05-04 13:49 55.62709 12.63999 25 ft 4 kts 30°
2026-05-04 13:49 55.62687 12.63985 24 ft 4 kts 341°
2026-05-04 13:50 55.62672 12.64010 25 ft 3 kts 303°
2026-05-04 13:50 55.62670 12.64014 25 ft 0 kts 303°
2026-05-04 13:52 55.62671 12.64011 25 ft 2 kts 303°
2026-05-04 13:52 55.62691 12.63957 26 ft 8 kts 303°
2026-05-04 13:52 55.62688 12.63859 25 ft 9 kts 220°
2026-05-04 13:53 55.62636 12.63903 24 ft 9 kts 124°
2026-05-04 13:53 55.62591 12.64025 24 ft 14 kts 123°
2026-05-04 13:53 55.62532 12.64186 24 ft 15 kts 123°
2026-05-04 13:54 55.62419 12.64449 25 ft 11 kts 152°
2026-05-04 13:54 55.62355 12.64432 23 ft 7 kts 196°
2026-05-04 13:54 55.62345 12.64427 23 ft 1 kts 195°
2026-05-04 13:55 55.62313 12.64411 23 ft 9 kts 195°
2026-05-04 13:55 55.62111 12.64270 26 ft 17 kts 205°
2026-05-04 13:55 55.61998 12.64174 24 ft 19 kts 206°
2026-05-04 13:56 55.61882 12.64074 24 ft 12 kts 198°
2026-05-04 13:56 55.61799 12.64075 25 ft 11 kts 176°
2026-05-04 13:56 55.61666 12.64090 27 ft 11 kts 178°
2026-05-04 13:57 55.61601 12.64030 27 ft 18 kts 221°
2026-05-04 13:57 55.61328 12.63608 26 ft 85 kts 221°
2026-05-04 13:58 55.59054 12.60075 919 ft 163 kts 227°
2026-05-04 13:58 55.57203 12.57221 1881 ft 196 kts 224°
2026-05-04 13:58 55.56047 12.55666 2318 ft 222 kts 219°
2026-05-04 13:59 55.54718 12.54005 2962 ft 245 kts 219°
2026-05-04 13:59 55.53305 12.52204 3783 ft 254 kts 220°
2026-05-04 13:59 55.50418 12.48489 5711 ft 257 kts 220°
2026-05-04 14:00 55.48963 12.46628 6621 ft 259 kts 220°
2026-05-04 14:00 55.45930 12.42731 7583 ft 294 kts 220°
2026-05-04 14:00 55.44203 12.40505 7981 ft 311 kts 219°
2026-05-04 14:01 55.42459 12.38273 8703 ft 316 kts 219°
2026-05-04 14:01 55.40668 12.35991 9519 ft 319 kts 219°
2026-05-04 14:01 55.37044 12.31396 11059 ft 323 kts 219°
2026-05-04 14:02 55.35208 12.29075 11783 ft 327 kts 219°
2026-05-04 14:02 55.33354 12.26731 12491 ft 330 kts 219°
2026-05-04 14:02 55.31479 12.24359 13191 ft 334 kts 219°
2026-05-04 14:02 55.29582 12.21958 13877 ft 338 kts 219°
2026-05-04 14:03 55.27666 12.19535 14468 ft 341 kts 219°
2026-05-04 14:03 55.25732 12.17093 15085 ft 344 kts 220°
2026-05-04 14:03 55.23779 12.14625 15706 ft 347 kts 220°
2026-05-04 14:03 55.21818 12.12149 16317 ft 350 kts 220°
2026-05-04 14:04 55.17835 12.07146 17511 ft 355 kts 219°
2026-05-04 14:04 55.15820 12.04615 18120 ft 358 kts 219°
2026-05-04 14:04 55.13787 12.02065 18643 ft 361 kts 219°
2026-05-04 14:05 55.09670 11.96928 19726 ft 366 kts 219°
2026-05-04 14:05 55.07591 11.94338 20277 ft 368 kts 219°
2026-05-04 14:05 55.05500 11.91733 20820 ft 370 kts 219°
2026-05-04 14:06 55.03401 11.89118 21343 ft 373 kts 219°
2026-05-04 14:06 55.01279 11.86479 21860 ft 375 kts 219°
2026-05-04 14:06 54.99148 11.83831 22359 ft 377 kts 219°
2026-05-04 14:06 54.97004 11.81170 22845 ft 380 kts 219°
2026-05-04 14:07 54.94844 11.78498 23283 ft 382 kts 219°
2026-05-04 14:07 54.92677 11.75822 23787 ft 382 kts 219°
2026-05-04 14:07 54.90511 11.73153 24232 ft 382 kts 219°
2026-05-04 14:07 54.88372 11.70519 24637 ft 382 kts 219°
2026-05-04 14:08 54.86201 11.67845 25028 ft 383 kts 219°
2026-05-04 14:08 54.84029 11.65173 25410 ft 384 kts 219°
2026-05-04 14:08 54.81841 11.62486 25792 ft 385 kts 220°
2026-05-04 14:08 54.79651 11.59800 26177 ft 386 kts 220°
2026-05-04 14:09 54.75252 11.54416 26886 ft 388 kts 220°
2026-05-04 14:09 54.73043 11.51717 27233 ft 389 kts 220°
2026-05-04 14:10 54.68610 11.46311 27933 ft 390 kts 220°
2026-05-04 14:10 54.66393 11.43610 28271 ft 390 kts 220°
2026-05-04 14:10 54.64170 11.40906 28580 ft 391 kts 220°
2026-05-04 14:10 54.61940 11.38198 28876 ft 393 kts 220°
2026-05-04 14:11 54.59701 11.35486 29186 ft 394 kts 220°
2026-05-04 14:11 54.55187 11.30026 29635 ft 398 kts 220°
2026-05-04 14:11 54.52944 11.27325 29886 ft 399 kts 220°
2026-05-04 14:12 54.50637 11.24551 30167 ft 399 kts 220°
2026-05-04 14:12 54.48394 11.21861 30393 ft 398 kts 219°
2026-05-04 14:12 54.43846 11.16409 30886 ft 399 kts 219°
2026-05-04 14:13 54.41570 11.13681 31126 ft 399 kts 219°
2026-05-04 14:13 54.39294 11.10952 31376 ft 399 kts 219°
2026-05-04 14:13 54.37015 11.08225 31627 ft 399 kts 219°
2026-05-04 14:13 54.34735 11.05499 31882 ft 399 kts 219°
2026-05-04 14:14 54.32421 11.02851 32143 ft 402 kts 214°
2026-05-04 14:14 54.27106 10.99528 32641 ft 416 kts 196°
2026-05-04 14:14 54.24242 10.98726 32861 ft 417 kts 195°
2026-05-04 14:15 54.18511 10.97127 33363 ft 417 kts 195°
2026-05-04 14:15 54.12789 10.95525 33924 ft 416 kts 195°
2026-05-04 14:16 54.08040 10.94188 34288 ft 416 kts 195°
2026-05-04 14:16 54.05181 10.93386 34483 ft 417 kts 195°
2026-05-04 14:17 53.99450 10.91780 34825 ft 418 kts 195°
2026-05-04 14:17 53.96575 10.90976 35003 ft 419 kts 195°
2026-05-04 14:17 53.90813 10.89365 35355 ft 420 kts 194°
2026-05-04 14:18 53.87924 10.88559 35508 ft 421 kts 194°
2026-05-04 14:18 53.82138 10.86948 35837 ft 422 kts 194°
2026-05-04 14:19 53.76320 10.85354 36004 ft 425 kts 194°
2026-05-04 14:19 53.70477 10.83746 35995 ft 426 kts 194°
2026-05-04 14:20 53.64627 10.82135 35991 ft 426 kts 194°
2026-05-04 14:20 53.58767 10.80526 35985 ft 426 kts 194°
2026-05-04 14:21 53.49987 10.78126 35958 ft 426 kts 194°
2026-05-04 14:21 53.44132 10.76546 35959 ft 426 kts 194°
2026-05-04 14:22 53.38285 10.74962 35963 ft 426 kts 194°
2026-05-04 14:22 53.32423 10.73372 35961 ft 426 kts 194°
2026-05-04 14:23 53.23648 10.70988 35947 ft 425 kts 194°
2026-05-04 14:24 53.17827 10.69412 35966 ft 423 kts 194°
2026-05-04 14:24 53.12054 10.67869 35972 ft 422 kts 194°
2026-05-04 14:25 53.06250 10.66322 35974 ft 422 kts 194°
2026-05-04 14:25 52.97562 10.64008 35974 ft 421 kts 194°
2026-05-04 14:26 52.91770 10.62475 35974 ft 421 kts 194°
2026-05-04 14:26 52.85988 10.60940 35970 ft 420 kts 194°
2026-05-04 14:27 52.80214 10.59397 35969 ft 420 kts 194°
2026-05-04 14:27 52.74443 10.57877 35957 ft 419 kts 194°
2026-05-04 14:28 52.68681 10.56374 35964 ft 419 kts 194°
2026-05-04 14:28 52.62925 10.54870 35972 ft 419 kts 194°
2026-05-04 14:29 52.51422 10.51856 35939 ft 418 kts 194°
2026-05-04 14:30 52.45674 10.50359 35955 ft 418 kts 194°
2026-05-04 14:31 52.37097 10.48141 35967 ft 418 kts 194°
2026-05-04 14:32 52.25606 10.45179 35955 ft 417 kts 194°
2026-05-04 14:32 52.19866 10.43699 35962 ft 418 kts 194°
2026-05-04 14:33 52.14156 10.42241 35972 ft 418 kts 194°
2026-05-04 14:33 52.08405 10.40776 35976 ft 418 kts 194°
2026-05-04 14:34 52.02649 10.39314 35958 ft 418 kts 194°
2026-05-04 14:34 51.96899 10.37855 35968 ft 419 kts 194°
2026-05-04 14:35 51.91144 10.36387 35968 ft 418 kts 194°
2026-05-04 14:35 51.85394 10.34923 35968 ft 418 kts 194°
2026-05-04 14:36 51.79635 10.33477 35957 ft 418 kts 194°
2026-05-04 14:36 51.73879 10.32041 35962 ft 418 kts 194°
2026-05-04 14:37 51.68126 10.30593 35967 ft 418 kts 194°
2026-05-04 14:37 51.62373 10.29140 35969 ft 418 kts 194°
2026-05-04 14:38 51.56654 10.27707 35954 ft 418 kts 193°
2026-05-04 14:38 51.50897 10.26282 35967 ft 419 kts 193°
2026-05-04 14:39 51.45141 10.24865 35966 ft 418 kts 193°
2026-05-04 14:39 51.39391 10.23446 35976 ft 418 kts 193°
2026-05-04 14:40 51.30701 10.21895 35966 ft 422 kts 185°
2026-05-04 14:40 51.24807 10.21784 35569 ft 424 kts 185°
2026-05-04 14:41 51.21867 10.21720 35069 ft 422 kts 185°
2026-05-04 14:41 51.18930 10.21657 34577 ft 422 kts 186°
2026-05-04 14:41 51.13061 10.21529 33561 ft 422 kts 186°
2026-05-04 14:42 51.07158 10.21417 32473 ft 424 kts 185°
2026-05-04 14:42 51.04203 10.21364 31942 ft 425 kts 185°
2026-05-04 14:42 51.01246 10.21312 31431 ft 426 kts 185°
2026-05-04 14:43 50.98278 10.21263 30921 ft 427 kts 185°
2026-05-04 14:43 50.95310 10.21215 30429 ft 425 kts 184°
2026-05-04 14:43 50.92363 10.21165 29924 ft 422 kts 184°
2026-05-04 14:43 50.89437 10.21118 29355 ft 419 kts 184°
2026-05-04 14:44 50.86542 10.20960 28784 ft 412 kts 191°
2026-05-04 14:44 50.83812 10.19790 28240 ft 404 kts 205°
2026-05-04 14:44 50.81359 10.17687 27709 ft 399 kts 215°
2026-05-04 14:44 50.79181 10.14999 27176 ft 396 kts 223°
2026-05-04 14:45 50.77283 10.11868 26591 ft 394 kts 230°
2026-05-04 14:45 50.75708 10.08279 25461 ft 404 kts 240°
2026-05-04 14:45 50.74428 10.04307 24601 ft 407 kts 242°
2026-05-04 14:45 50.73159 10.00318 23883 ft 405 kts 242°
2026-05-04 14:46 50.71906 9.96386 22883 ft 398 kts 242°
2026-05-04 14:46 50.70665 9.92510 21673 ft 393 kts 242°
2026-05-04 14:46 50.69452 9.88730 20539 ft 389 kts 242°
2026-05-04 14:46 50.68234 9.84947 19472 ft 385 kts 242°
2026-05-04 14:47 50.67023 9.81208 18451 ft 381 kts 242°
2026-05-04 14:47 50.65820 9.77494 17312 ft 379 kts 242°
2026-05-04 14:47 50.64626 9.73814 16252 ft 375 kts 242°
2026-05-04 14:47 50.63282 9.70348 15262 ft 368 kts 231°
2026-05-04 14:48 50.61489 9.67513 14307 ft 363 kts 217°
2026-05-04 14:48 50.59348 9.65480 13701 ft 359 kts 204°
2026-05-04 14:48 50.57038 9.64029 13139 ft 356 kts 201°
2026-05-04 14:48 50.54737 9.62621 12618 ft 353 kts 201°
2026-05-04 14:49 50.52461 9.61228 12084 ft 349 kts 201°
2026-05-04 14:49 50.50255 9.59679 11549 ft 346 kts 211°
2026-05-04 14:49 50.48381 9.57350 11099 ft 343 kts 226°
2026-05-04 14:49 50.46988 9.54313 10949 ft 345 kts 240°
2026-05-04 14:50 50.46120 9.50789 10984 ft 348 kts 251°
2026-05-04 14:50 50.45429 9.47138 10984 ft 349 kts 251°
2026-05-04 14:50 50.44736 9.43491 10983 ft 349 kts 251°
2026-05-04 14:50 50.44044 9.39846 10983 ft 348 kts 251°
2026-05-04 14:51 50.43355 9.36200 10983 ft 349 kts 251°
2026-05-04 14:51 50.42659 9.32542 10981 ft 349 kts 251°
2026-05-04 14:51 50.41961 9.28901 10983 ft 349 kts 251°
2026-05-04 14:51 50.41262 9.25249 10986 ft 350 kts 251°
2026-05-04 14:52 50.40515 9.21639 10975 ft 342 kts 249°
2026-05-04 14:52 50.39736 9.18202 10863 ft 327 kts 248°
2026-05-04 14:52 50.38961 9.14926 10740 ft 315 kts 247°
2026-05-04 14:52 50.38202 9.11768 10609 ft 303 kts 247°
2026-05-04 14:53 50.37383 9.08824 10189 ft 299 kts 233°
2026-05-04 14:53 50.35918 9.06668 10063 ft 284 kts 208°
2026-05-04 14:53 50.34073 9.05812 9905 ft 275 kts 182°
2026-05-04 14:53 50.32177 9.05985 9559 ft 273 kts 175°
2026-05-04 14:54 50.30296 9.06344 9174 ft 272 kts 174°
2026-05-04 14:54 50.28425 9.06726 8786 ft 271 kts 174°
2026-05-04 14:54 50.26559 9.06826 8401 ft 267 kts 191°
2026-05-04 14:54 50.24887 9.05670 8023 ft 265 kts 217°
2026-05-04 14:55 50.23528 9.03747 7605 ft 265 kts 223°
2026-05-04 14:55 50.22208 9.01713 7210 ft 265 kts 224°
2026-05-04 14:55 50.20900 8.99699 6863 ft 264 kts 224°
2026-05-04 14:55 50.19599 8.97697 6471 ft 262 kts 224°
2026-05-04 14:56 50.18294 8.95710 6102 ft 261 kts 224°
2026-05-04 14:56 50.16994 8.93740 5756 ft 260 kts 224°
2026-05-04 14:56 50.15690 8.91786 5442 ft 259 kts 224°
2026-05-04 14:56 50.14405 8.89885 5290 ft 249 kts 224°
2026-05-04 14:57 50.13177 8.88078 5162 ft 237 kts 226°
2026-05-04 14:57 50.12301 8.86030 4962 ft 229 kts 248°
2026-05-04 14:57 50.11756 8.83717 4657 ft 226 kts 251°
2026-05-04 14:57 50.11230 8.81415 4336 ft 225 kts 250°
2026-05-04 14:58 50.10694 8.79127 4013 ft 224 kts 251°
2026-05-04 14:58 50.10160 8.76864 3694 ft 220 kts 251°
2026-05-04 14:58 50.09646 8.74689 3394 ft 210 kts 250°
2026-05-04 14:58 50.09319 8.73307 3200 ft 203 kts 251°
2026-05-04 14:59 50.08693 8.70666 2865 ft 188 kts 252°
2026-05-04 14:59 50.08245 8.68777 2567 ft 183 kts 252°
2026-05-04 14:59 50.07399 8.65208 2063 ft 168 kts 251°
2026-05-04 15:00 50.07015 8.63595 1850 ft 150 kts 250°
2026-05-04 15:00 50.06669 8.62136 1631 ft 141 kts 251°
2026-05-04 15:00 50.06329 8.60711 1434 ft 142 kts 251°
2026-05-04 15:01 50.05668 8.57930 1027 ft 137 kts 251°
2026-05-04 15:01 50.05336 8.56524 844 ft 139 kts 250°
2026-05-04 15:01 50.05009 8.55133 676 ft 138 kts 249°
2026-05-04 15:01 50.04671 8.53735 476 ft 138 kts 249°
2026-05-04 15:02 50.04345 8.52376 348 ft 124 kts 250°
2026-05-04 15:02 50.04099 8.51348 331 ft 77 kts 249°
2026-05-04 15:02 50.03959 8.50769 324 ft 48 kts 249°
2026-05-04 15:02 50.03861 8.50429 321 ft 25 kts 231°
2026-05-04 15:03 50.03741 8.50251 319 ft 24 kts 219°
2026-05-04 15:03 50.03649 8.50193 323 ft 10 kts 160°
2026-05-04 15:03 50.03628 8.50250 324 ft 9 kts 95°
2026-05-04 15:03 50.03641 8.50341 323 ft 13 kts 70°
2026-05-04 15:04 50.03685 8.50523 326 ft 21 kts 69°
2026-05-04 15:04 50.03732 8.50720 331 ft 18 kts 70°
2026-05-04 15:04 50.03771 8.50885 333 ft 15 kts 70°
2026-05-04 15:04 50.03804 8.51022 334 ft 13 kts 69°
2026-05-04 15:05 50.03843 8.51180 334 ft 18 kts 69°
2026-05-04 15:05 50.03891 8.51383 336 ft 22 kts 70°
2026-05-04 15:05 50.03947 8.51620 335 ft 25 kts 69°
2026-05-04 15:05 50.04011 8.51884 333 ft 27 kts 69°
2026-05-04 15:06 50.04074 8.52152 345 ft 26 kts 69°
2026-05-04 15:06 50.04136 8.52406 347 ft 25 kts 69°
2026-05-04 15:06 50.04195 8.52653 351 ft 24 kts 69°
2026-05-04 15:07 50.04307 8.53127 361 ft 22 kts 68°
2026-05-04 15:07 50.04359 8.53340 374 ft 20 kts 69°
2026-05-04 15:07 50.04397 8.53550 375 ft 21 kts 84°
2026-05-04 15:07 50.04414 8.53796 375 ft 24 kts 84°
2026-05-04 15:08 50.04432 8.54059 375 ft 25 kts 84°
2026-05-04 15:08 50.04452 8.54335 374 ft 25 kts 84°
2026-05-04 15:08 50.04431 8.54586 366 ft 26 kts 114°
2026-05-04 15:08 50.04310 8.54774 360 ft 22 kts 156°
2026-05-04 15:09 50.04171 8.54851 354 ft 21 kts 160°
2026-05-04 15:09 50.04079 8.54904 351 ft 7 kts 159°
2026-05-04 15:09 50.04072 8.54908 356 ft 0 kts 159°
2026-05-04 15:10 50.04071 8.54908 356 ft 1 kts 159°
2026-05-04 15:11 50.04047 8.54924 353 ft 7 kts 158°
2026-05-04 15:11 50.03987 8.54961 356 ft 12 kts 160°
2026-05-04 15:11 50.03889 8.55014 353 ft 15 kts 160°
2026-05-04 15:11 50.03852 8.55132 357 ft 15 kts 73°
2026-05-04 15:12 50.03897 8.55314 353 ft 20 kts 69°
2026-05-04 15:12 50.03948 8.55527 351 ft 22 kts 69°
2026-05-04 15:12 50.04003 8.55756 354 ft 23 kts 69°
2026-05-04 15:12 50.04059 8.55992 353 ft 23 kts 69°
2026-05-04 15:13 50.04116 8.56232 355 ft 24 kts 69°
2026-05-04 15:13 50.04175 8.56478 359 ft 24 kts 69°
2026-05-04 15:13 50.04234 8.56721 359 ft 24 kts 69°
2026-05-04 15:13 50.04291 8.56960 360 ft 24 kts 69°
2026-05-04 15:14 50.04348 8.57204 363 ft 24 kts 70°
2026-05-04 15:14 50.04407 8.57453 361 ft 23 kts 69°
2026-05-04 15:14 50.04459 8.57670 367 ft 20 kts 70°
2026-05-04 15:14 50.04507 8.57874 367 ft 15 kts 70°
2026-05-04 15:15 50.04525 8.57945 364 ft 0 kts 69°
2026-05-04 15:16 50.04542 8.58018 363 ft 10 kts 69°
2026-05-04 15:16 50.04571 8.58135 365 ft 13 kts 70°
2026-05-04 15:16 50.04642 8.58432 369 ft 18 kts 70°
2026-05-04 15:17 50.04687 8.58623 374 ft 20 kts 69°
2026-05-04 15:17 50.04792 8.59041 370 ft 18 kts 69°
2026-05-04 15:17 50.04832 8.59205 372 ft 11 kts 69°
2026-05-04 15:18 50.04869 8.59216 370 ft 7 kts 334°
2026-05-04 15:18 50.04913 8.59190 367 ft 4 kts 340°
2026-05-04 15:18 50.04922 8.59185 367 ft 0 kts 340°